User: anonymous   Login
Location: Unspecified
(0.0000°N, 0.0000°E)
Time: 20:39:39
(UTC+00:00)
Language:

Courier 1B - Orbit

View from above orbital plane
View from above orbital plane
View from above satellite
View from above satellite

Ground track
Ground track

The orbit data is extracted from the following two-line orbital elements,

1 00058U 60013A   17050.66200426  .00000078  00000-0 -90954-5 0  9990
2 00058  28.3267 132.4423 0165055 100.2320 261.6880 13.46307240775451
Epoch (UTC): 19 February 2017 15:53:17
Eccentricity: 0.0165055
inclination: 28.3267°
perigee height: 962 km
apogee height: 1209 km
right ascension of ascending node: 132.4423°
argument of perigee: 100.2320°
revolutions per day: 13.46307240
mean anomaly at epoch: 261.6880°
orbit number at epoch: 77545

The dashed part of the orbit path shows where the satellite is in the earth's shadow,  

DLR